Year,Month,Day,Hour,Minute,Value (Times are PST for windgust in km/hr)
2015,01,17,00,00,14.50
2015,01,17,00,01,9.60
2015,01,17,00,02,9.60
2015,01,17,00,03,11.30
2015,01,17,00,04,8.10
2015,01,17,00,05,20.90
2015,01,17,00,06,16.10
2015,01,17,00,07,12.90
2015,01,17,00,08,9.60
2015,01,17,00,09,8.10
2015,01,17,00,10,8.10
2015,01,17,00,11,8.10
2015,01,17,00,12,8.10
2015,01,17,00,13,8.10
2015,01,17,00,14,8.10
2015,01,17,00,15,11.30
2015,01,17,00,16,9.60
2015,01,17,00,17,9.60
2015,01,17,00,18,9.60
2015,01,17,00,19,9.60
2015,01,17,00,20,11.30
2015,01,17,00,21,6.40
2015,01,17,00,22,6.40
2015,01,17,00,23,6.40
2015,01,17,00,24,6.40
2015,01,17,00,25,8.10
2015,01,17,00,26,8.10
2015,01,17,00,27,9.60
2015,01,17,00,28,8.10
2015,01,17,00,29,6.40
2015,01,17,00,30,6.40
2015,01,17,00,31,6.40
2015,01,17,00,32,6.40
2015,01,17,00,33,3.20
2015,01,17,00,34,4.80
2015,01,17,00,35,1.60
2015,01,17,00,36,4.80
2015,01,17,00,37,4.80
2015,01,17,00,38,3.20
2015,01,17,00,39,3.20
2015,01,17,00,40,3.20
2015,01,17,00,41,1.60
2015,01,17,00,44,1.60
2015,01,17,00,45,1.60
2015,01,17,00,46,9.60
2015,01,17,00,47,8.10
2015,01,17,00,48,6.40
2015,01,17,00,49,1.60
2015,01,17,00,52,1.60
2015,01,17,00,54,6.40
2015,01,17,00,55,3.20
2015,01,17,01,08,3.20
2015,01,17,01,09,3.20
2015,01,17,01,10,3.20
2015,01,17,01,11,3.20
2015,01,17,01,12,3.20
2015,01,17,01,13,3.20
2015,01,17,01,14,4.80
2015,01,17,01,15,6.40
2015,01,17,01,16,8.10
2015,01,17,01,17,6.40
2015,01,17,01,18,1.60
2015,01,17,01,19,6.40
2015,01,17,01,20,3.20
2015,01,17,01,21,3.20
2015,01,17,01,22,3.20
2015,01,17,01,23,3.20
2015,01,17,01,24,3.20
2015,01,17,01,25,6.40
2015,01,17,01,26,1.60
2015,01,17,01,27,4.80
2015,01,17,01,28,4.80
2015,01,17,01,29,6.40
2015,01,17,01,30,4.80
2015,01,17,01,32,1.60
2015,01,17,01,33,4.80
2015,01,17,01,34,1.60
2015,01,17,01,35,1.60
2015,01,17,01,36,6.40
2015,01,17,01,37,6.40
2015,01,17,01,38,3.20
2015,01,17,01,39,3.20
2015,01,17,01,40,3.20
2015,01,17,01,41,3.20
2015,01,17,01,42,3.20
2015,01,17,01,44,3.20
2015,01,17,01,45,6.40
2015,01,17,01,46,6.40
2015,01,17,01,47,1.60
2015,01,17,01,48,1.60
2015,01,17,01,49,3.20
2015,01,17,01,50,3.20
2015,01,17,01,51,1.60
2015,01,17,01,52,4.80
2015,01,17,01,53,4.80
2015,01,17,01,54,3.20
2015,01,17,01,55,3.20
2015,01,17,01,56,6.40
2015,01,17,01,57,1.60
2015,01,17,01,58,1.60
2015,01,17,02,00,3.20
2015,01,17,02,01,1.60
2015,01,17,02,02,1.60
2015,01,17,02,03,4.80
2015,01,17,02,04,4.80
2015,01,17,02,05,4.80
2015,01,17,02,06,8.10
2015,01,17,02,07,4.80
2015,01,17,02,08,6.40
2015,01,17,02,09,6.40
2015,01,17,02,10,6.40
2015,01,17,02,11,6.40
2015,01,17,02,12,4.80
2015,01,17,02,14,1.60
2015,01,17,02,15,3.20
2015,01,17,02,16,1.60
2015,01,17,02,17,6.40
2015,01,17,02,18,3.20
2015,01,17,02,19,3.20
2015,01,17,02,20,1.60
2015,01,17,02,21,6.40
2015,01,17,02,22,9.60
2015,01,17,02,23,4.80
2015,01,17,02,24,4.80
2015,01,17,02,25,4.80
2015,01,17,02,26,4.80
2015,01,17,02,27,4.80
2015,01,17,02,28,1.60
2015,01,17,02,29,8.10
2015,01,17,02,30,9.60
2015,01,17,02,31,3.20
2015,01,17,02,32,6.40
2015,01,17,02,33,6.40
2015,01,17,02,34,4.80
2015,01,17,02,35,3.20
2015,01,17,02,36,6.40
2015,01,17,02,37,3.20
2015,01,17,02,38,3.20
2015,01,17,02,39,1.60
2015,01,17,02,40,3.20
2015,01,17,02,41,6.40
2015,01,17,02,42,4.80
2015,01,17,02,43,4.80
2015,01,17,02,44,9.60
2015,01,17,02,45,9.60
2015,01,17,02,46,9.60
2015,01,17,02,47,3.20
2015,01,17,02,48,4.80
2015,01,17,02,49,4.80
2015,01,17,02,50,6.40
2015,01,17,02,51,8.10
2015,01,17,02,52,6.40
2015,01,17,02,53,6.40
2015,01,17,02,54,9.60
2015,01,17,02,55,6.40
2015,01,17,02,56,4.80
2015,01,17,02,57,4.80
2015,01,17,02,58,4.80
2015,01,17,02,59,6.40
2015,01,17,03,00,6.40
2015,01,17,03,01,8.10
2015,01,17,03,02,3.20
2015,01,17,03,03,3.20
2015,01,17,03,04,1.60
2015,01,17,03,05,1.60
2015,01,17,03,06,6.40
2015,01,17,03,07,1.60
2015,01,17,03,08,3.20
2015,01,17,03,09,6.40
2015,01,17,03,10,3.20
2015,01,17,03,11,1.60
2015,01,17,03,12,1.60
2015,01,17,03,13,1.60
2015,01,17,03,14,4.80
2015,01,17,03,15,4.80
2015,01,17,03,16,4.80
2015,01,17,03,17,3.20
2015,01,17,03,18,1.60
2015,01,17,03,20,3.20
2015,01,17,03,21,3.20
2015,01,17,03,22,3.20
2015,01,17,03,23,6.40
2015,01,17,03,24,6.40
2015,01,17,03,26,3.20
2015,01,17,03,27,4.80
2015,01,17,03,28,3.20
2015,01,17,03,29,3.20
2015,01,17,03,30,8.10
2015,01,17,03,31,3.20
2015,01,17,03,32,3.20
2015,01,17,03,33,3.20
2015,01,17,03,34,1.60
2015,01,17,03,35,3.20
2015,01,17,03,36,4.80
2015,01,17,03,37,6.40
2015,01,17,03,38,8.10
2015,01,17,03,39,6.40
2015,01,17,03,40,6.40
2015,01,17,03,41,6.40
2015,01,17,03,42,6.40
2015,01,17,03,43,4.80
2015,01,17,03,44,6.40
2015,01,17,03,45,4.80
2015,01,17,03,46,6.40
2015,01,17,03,47,6.40
2015,01,17,03,48,6.40
2015,01,17,03,49,4.80
2015,01,17,03,50,3.20
2015,01,17,03,51,3.20
2015,01,17,03,52,1.60
2015,01,17,03,53,1.60
2015,01,17,03,54,3.20
2015,01,17,03,55,3.20
2015,01,17,03,56,3.20
2015,01,17,03,57,4.80
2015,01,17,03,58,4.80
2015,01,17,03,59,6.40
2015,01,17,04,00,6.40
2015,01,17,04,01,4.80
2015,01,17,04,02,3.20
2015,01,17,04,03,6.40
2015,01,17,04,04,3.20
2015,01,17,04,05,1.60
2015,01,17,04,06,3.20
2015,01,17,04,07,3.20
2015,01,17,04,08,4.80
2015,01,17,04,09,4.80
2015,01,17,04,10,4.80
2015,01,17,04,11,4.80
2015,01,17,04,12,4.80
2015,01,17,04,13,8.10
2015,01,17,04,14,8.10
2015,01,17,04,15,6.40
2015,01,17,04,16,6.40
2015,01,17,04,17,6.40
2015,01,17,04,18,3.20
2015,01,17,04,19,3.20
2015,01,17,04,20,4.80
2015,01,17,04,21,6.40
2015,01,17,04,22,9.60
2015,01,17,04,23,12.90
2015,01,17,04,24,6.40
2015,01,17,04,25,8.10
2015,01,17,04,26,8.10
2015,01,17,04,27,6.40
2015,01,17,04,28,8.10
2015,01,17,04,29,6.40
2015,01,17,04,30,9.60
2015,01,17,04,31,3.20
2015,01,17,04,32,4.80
2015,01,17,04,33,4.80
2015,01,17,04,34,8.10
2015,01,17,04,35,9.60
2015,01,17,04,36,8.10
2015,01,17,04,37,9.60
2015,01,17,04,38,11.30
2015,01,17,04,39,6.40
2015,01,17,04,40,8.10
2015,01,17,04,41,8.10
2015,01,17,04,42,8.10
2015,01,17,04,43,6.40
2015,01,17,04,44,12.90
2015,01,17,04,45,4.80
2015,01,17,04,46,3.20
2015,01,17,04,47,4.80
2015,01,17,04,48,8.10
2015,01,17,04,49,8.10
2015,01,17,04,50,11.30
2015,01,17,04,51,8.10
2015,01,17,04,52,8.10
2015,01,17,04,53,8.10
2015,01,17,04,54,8.10
2015,01,17,04,55,8.10
2015,01,17,04,56,9.60
2015,01,17,04,57,8.10
2015,01,17,04,58,4.80
2015,01,17,04,59,4.80
2015,01,17,05,00,6.40
2015,01,17,05,01,9.60
2015,01,17,05,02,9.60
2015,01,17,05,03,8.10
2015,01,17,05,04,8.10
2015,01,17,05,05,8.10
2015,01,17,05,06,6.40
2015,01,17,05,07,8.10
2015,01,17,05,08,6.40
2015,01,17,05,09,6.40
2015,01,17,05,10,6.40
2015,01,17,05,11,8.10
2015,01,17,05,12,6.40
2015,01,17,05,13,4.80
2015,01,17,05,14,3.20
2015,01,17,05,15,4.80
2015,01,17,05,16,8.10
2015,01,17,05,17,9.60
2015,01,17,05,18,9.60
2015,01,17,05,19,6.40
2015,01,17,05,20,9.60
2015,01,17,05,21,8.10
2015,01,17,05,22,8.10
2015,01,17,05,23,8.10
2015,01,17,05,24,11.30
2015,01,17,05,25,6.40
2015,01,17,05,26,4.80
2015,01,17,05,27,4.80
2015,01,17,05,28,3.20
2015,01,17,05,29,3.20
2015,01,17,05,30,4.80
2015,01,17,05,31,4.80
2015,01,17,05,32,8.10
2015,01,17,05,33,4.80
2015,01,17,05,34,4.80
2015,01,17,05,35,9.60
2015,01,17,05,36,8.10
2015,01,17,05,37,6.40
2015,01,17,05,38,6.40
2015,01,17,05,39,8.10
2015,01,17,05,40,8.10
2015,01,17,05,41,9.60
2015,01,17,05,42,14.50
2015,01,17,05,43,8.10
2015,01,17,05,44,4.80
2015,01,17,05,45,8.10
2015,01,17,05,46,9.60
2015,01,17,05,47,8.10
2015,01,17,05,48,9.60
2015,01,17,05,49,8.10
2015,01,17,05,50,8.10
2015,01,17,05,51,6.40
2015,01,17,05,52,8.10
2015,01,17,05,53,9.60
2015,01,17,05,54,6.40
2015,01,17,05,55,8.10
2015,01,17,05,56,9.60
2015,01,17,05,57,9.60
2015,01,17,05,58,8.10
2015,01,17,05,59,12.90
2015,01,17,06,00,8.10
2015,01,17,06,01,8.10
2015,01,17,06,02,6.40
2015,01,17,06,03,6.40
2015,01,17,06,04,8.10
2015,01,17,06,05,11.30
2015,01,17,06,06,6.40
2015,01,17,06,07,4.80
2015,01,17,06,08,6.40
2015,01,17,06,09,4.80
2015,01,17,06,10,4.80
2015,01,17,06,11,6.40
2015,01,17,06,12,8.10
2015,01,17,06,13,8.10
2015,01,17,06,14,9.60
2015,01,17,06,15,9.60
2015,01,17,06,16,6.40
2015,01,17,06,17,4.80
2015,01,17,06,18,9.60
2015,01,17,06,19,8.10
2015,01,17,06,20,8.10
2015,01,17,06,21,4.80
2015,01,17,06,22,8.10
2015,01,17,06,23,9.60
2015,01,17,06,24,8.10
2015,01,17,06,25,8.10
2015,01,17,06,26,8.10
2015,01,17,06,27,6.40
2015,01,17,06,28,6.40
2015,01,17,06,29,8.10
2015,01,17,06,30,8.10
2015,01,17,06,31,9.60
2015,01,17,06,32,11.30
2015,01,17,06,33,11.30
2015,01,17,06,34,8.10
2015,01,17,06,35,4.80
2015,01,17,06,36,8.10
2015,01,17,06,37,8.10
2015,01,17,06,38,8.10
2015,01,17,06,39,6.40
2015,01,17,06,40,6.40
2015,01,17,06,41,8.10
2015,01,17,06,42,6.40
2015,01,17,06,43,4.80
2015,01,17,06,44,4.80
2015,01,17,06,45,3.20
2015,01,17,06,46,8.10
2015,01,17,06,47,6.40
2015,01,17,06,48,4.80
2015,01,17,06,49,6.40
2015,01,17,06,50,8.10
2015,01,17,06,51,12.90
2015,01,17,06,52,9.60
2015,01,17,06,53,9.60
2015,01,17,06,54,9.60
2015,01,17,06,55,16.10
2015,01,17,06,56,11.30
2015,01,17,06,57,8.10
2015,01,17,06,58,14.50
2015,01,17,06,59,8.10
2015,01,17,07,00,9.60
2015,01,17,07,01,8.10
2015,01,17,07,02,11.30
2015,01,17,07,03,14.50
2015,01,17,07,04,9.60
2015,01,17,07,05,11.30
2015,01,17,07,06,16.10
2015,01,17,07,07,14.50
2015,01,17,07,08,9.60
2015,01,17,07,09,6.40
2015,01,17,07,10,9.60
2015,01,17,07,11,11.30
2015,01,17,07,12,11.30
2015,01,17,07,13,14.50
2015,01,17,07,14,17.70
2015,01,17,07,15,16.10
2015,01,17,07,16,11.30
2015,01,17,07,17,16.10
2015,01,17,07,18,14.50
2015,01,17,07,19,16.10
2015,01,17,07,20,16.10
2015,01,17,07,21,14.50
2015,01,17,07,22,14.50
2015,01,17,07,23,11.30
2015,01,17,07,24,12.90
2015,01,17,07,25,11.30
2015,01,17,07,26,14.50
2015,01,17,07,27,20.90
2015,01,17,07,28,19.30
2015,01,17,07,29,17.70
2015,01,17,07,30,14.50
2015,01,17,07,31,9.60
2015,01,17,07,32,9.60
2015,01,17,07,33,11.30
2015,01,17,07,34,14.50
2015,01,17,07,35,9.60
2015,01,17,07,36,14.50
2015,01,17,07,37,11.30
2015,01,17,07,38,11.30
2015,01,17,07,39,11.30
2015,01,17,07,40,14.50
2015,01,17,07,41,9.60
2015,01,17,07,42,12.90
2015,01,17,07,43,11.30
2015,01,17,07,44,9.60
2015,01,17,07,45,17.70
2015,01,17,07,46,16.10
2015,01,17,07,47,11.30
2015,01,17,07,48,9.60
2015,01,17,07,49,11.30
2015,01,17,07,50,11.30
2015,01,17,07,51,16.10
2015,01,17,07,52,17.70
2015,01,17,07,53,16.10
2015,01,17,07,54,12.90
2015,01,17,07,55,14.50
2015,01,17,07,56,11.30
2015,01,17,07,57,16.10
2015,01,17,07,58,14.50
2015,01,17,07,59,9.60
2015,01,17,08,00,9.60
2015,01,17,08,01,8.10
2015,01,17,08,02,9.60
2015,01,17,08,03,12.90
2015,01,17,08,04,12.90
2015,01,17,08,05,14.50
2015,01,17,08,06,12.90
2015,01,17,08,07,11.30
2015,01,17,08,08,9.60
2015,01,17,08,09,11.30
2015,01,17,08,10,12.90
2015,01,17,08,11,14.50
2015,01,17,08,12,14.50
2015,01,17,08,13,11.30
2015,01,17,08,14,16.10
2015,01,17,08,15,17.70
2015,01,17,08,16,16.10
2015,01,17,08,17,16.10
2015,01,17,08,18,14.50
2015,01,17,08,19,9.60
2015,01,17,08,20,9.60
2015,01,17,08,21,12.90
2015,01,17,08,22,16.10
2015,01,17,08,23,11.30
2015,01,17,08,24,12.90
2015,01,17,08,25,9.60
2015,01,17,08,26,11.30
2015,01,17,08,27,9.60
2015,01,17,08,28,11.30
2015,01,17,08,29,6.40
2015,01,17,08,30,9.60
2015,01,17,08,31,14.50
2015,01,17,08,32,12.90
2015,01,17,08,33,11.30
2015,01,17,08,34,22.50
2015,01,17,08,35,17.70
2015,01,17,08,36,17.70
2015,01,17,08,37,20.90
2015,01,17,08,38,20.90
2015,01,17,08,39,16.10
2015,01,17,08,40,16.10
2015,01,17,08,41,17.70
2015,01,17,08,42,19.30
2015,01,17,08,43,14.50
2015,01,17,08,44,16.10
2015,01,17,08,45,11.30
2015,01,17,08,46,17.70
2015,01,17,08,47,16.10
2015,01,17,08,48,16.10
2015,01,17,08,49,16.10
2015,01,17,08,50,9.60
2015,01,17,08,51,16.10
2015,01,17,08,52,14.50
2015,01,17,08,53,20.90
2015,01,17,08,54,11.30
2015,01,17,08,55,16.10
2015,01,17,08,56,20.90
2015,01,17,08,57,19.30
2015,01,17,08,58,20.90
2015,01,17,08,59,20.90
2015,01,17,09,00,17.70
2015,01,17,09,01,19.30
2015,01,17,09,02,19.30
2015,01,17,09,03,17.70
2015,01,17,09,04,19.30
2015,01,17,09,05,16.10
2015,01,17,09,06,16.10
2015,01,17,09,07,19.30
2015,01,17,09,08,17.70
2015,01,17,09,09,19.30
2015,01,17,09,10,24.20
2015,01,17,09,11,17.70
2015,01,17,09,12,16.10
2015,01,17,09,13,16.10
2015,01,17,09,14,17.70
2015,01,17,09,15,19.30
2015,01,17,09,16,17.70
2015,01,17,09,17,19.30
2015,01,17,09,18,16.10
2015,01,17,09,19,11.30
2015,01,17,09,20,12.90
2015,01,17,09,21,20.90
2015,01,17,09,22,16.10
2015,01,17,09,23,9.60
2015,01,17,09,24,19.30
2015,01,17,09,25,20.90
2015,01,17,09,26,19.30
2015,01,17,09,27,20.90
2015,01,17,09,28,17.70
2015,01,17,09,29,20.90
2015,01,17,09,30,17.70
2015,01,17,09,31,19.30
2015,01,17,09,32,17.70
2015,01,17,09,33,19.30
2015,01,17,09,34,17.70
2015,01,17,09,35,14.50
2015,01,17,09,36,20.90
2015,01,17,09,37,11.30
2015,01,17,09,38,17.70
2015,01,17,09,39,17.70
2015,01,17,09,40,20.90
2015,01,17,09,41,16.10
2015,01,17,09,42,14.50
2015,01,17,09,43,17.70
2015,01,17,09,44,17.70
2015,01,17,09,45,14.50
2015,01,17,09,46,11.30
2015,01,17,09,47,14.50
2015,01,17,09,48,9.60
2015,01,17,09,49,17.70
2015,01,17,09,50,11.30
2015,01,17,09,51,11.30
2015,01,17,09,52,17.70
2015,01,17,09,53,17.70
2015,01,17,09,54,14.50
2015,01,17,09,55,8.10
2015,01,17,09,56,11.30
2015,01,17,09,57,19.30
2015,01,17,09,58,17.70
2015,01,17,09,59,19.30
2015,01,17,10,00,14.50
2015,01,17,10,01,16.10
2015,01,17,10,02,17.70
2015,01,17,10,03,11.30
2015,01,17,10,04,12.90
2015,01,17,10,05,12.90
2015,01,17,10,06,11.30
2015,01,17,10,07,17.70
2015,01,17,10,08,17.70
2015,01,17,10,09,22.50
2015,01,17,10,10,17.70
2015,01,17,10,11,16.10
2015,01,17,10,12,11.30
2015,01,17,10,13,14.50
2015,01,17,10,14,9.60
2015,01,17,10,15,14.50
2015,01,17,10,16,16.10
2015,01,17,10,17,12.90
2015,01,17,10,18,11.30
2015,01,17,10,19,11.30
2015,01,17,10,20,9.60
2015,01,17,10,21,11.30
2015,01,17,10,22,12.90
2015,01,17,10,23,16.10
2015,01,17,10,24,16.10
2015,01,17,10,25,9.60
2015,01,17,10,26,22.50
2015,01,17,10,27,17.70
2015,01,17,10,28,17.70
2015,01,17,10,29,16.10
2015,01,17,10,30,14.50
2015,01,17,10,31,11.30
2015,01,17,10,32,14.50
2015,01,17,10,33,11.30
2015,01,17,10,34,11.30
2015,01,17,10,35,14.50
2015,01,17,10,36,12.90
2015,01,17,10,37,17.70
2015,01,17,10,38,17.70
2015,01,17,10,39,16.10
2015,01,17,10,40,16.10
2015,01,17,10,41,8.10
2015,01,17,10,42,9.60
2015,01,17,10,43,8.10
2015,01,17,10,44,14.50
2015,01,17,10,45,12.90
2015,01,17,10,46,16.10
2015,01,17,10,47,9.60
2015,01,17,10,48,17.70
2015,01,17,10,49,11.30
2015,01,17,10,50,14.50
2015,01,17,10,51,17.70
2015,01,17,10,52,14.50
2015,01,17,10,53,16.10
2015,01,17,10,54,14.50
2015,01,17,10,55,9.60
2015,01,17,10,56,11.30
2015,01,17,10,57,16.10
2015,01,17,10,58,11.30
2015,01,17,10,59,9.60
2015,01,17,11,00,19.30
2015,01,17,11,01,14.50
2015,01,17,11,02,14.50
2015,01,17,11,03,12.90
2015,01,17,11,04,12.90
2015,01,17,11,05,9.60
2015,01,17,11,06,9.60
2015,01,17,11,07,9.60
2015,01,17,11,08,14.50
2015,01,17,11,09,14.50
2015,01,17,11,10,17.70
2015,01,17,11,11,14.50
2015,01,17,11,12,19.30
2015,01,17,11,13,14.50
2015,01,17,11,14,12.90
2015,01,17,11,15,8.10
2015,01,17,11,16,9.60
2015,01,17,11,17,11.30
2015,01,17,11,18,17.70
2015,01,17,11,19,16.10
2015,01,17,11,20,16.10
2015,01,17,11,21,17.70
2015,01,17,11,22,17.70
2015,01,17,11,23,11.30
2015,01,17,11,24,11.30
2015,01,17,11,25,9.60
2015,01,17,11,26,16.10
2015,01,17,11,27,11.30
2015,01,17,11,28,14.50
2015,01,17,11,29,11.30
2015,01,17,11,30,14.50
2015,01,17,11,31,14.50
2015,01,17,11,32,8.10
2015,01,17,11,33,9.60
2015,01,17,11,34,11.30
2015,01,17,11,35,14.50
2015,01,17,11,36,16.10
2015,01,17,11,37,11.30
2015,01,17,11,38,11.30
2015,01,17,11,39,16.10
2015,01,17,11,40,16.10
2015,01,17,11,41,17.70
2015,01,17,11,42,14.50
2015,01,17,11,43,20.90
2015,01,17,11,44,19.30
2015,01,17,11,45,11.30
2015,01,17,11,46,12.90
2015,01,17,11,47,14.50
2015,01,17,11,48,16.10
2015,01,17,11,49,14.50
2015,01,17,11,50,20.90
2015,01,17,11,51,11.30
2015,01,17,11,52,14.50
2015,01,17,11,53,8.10
2015,01,17,11,54,8.10
2015,01,17,11,55,16.10
2015,01,17,11,56,16.10
2015,01,17,11,57,12.90
2015,01,17,11,58,9.60
2015,01,17,11,59,17.70
2015,01,17,12,00,17.70
2015,01,17,12,01,12.90
2015,01,17,12,02,11.30
2015,01,17,12,03,11.30
2015,01,17,12,04,11.30
2015,01,17,12,05,11.30
2015,01,17,12,06,11.30
2015,01,17,12,07,16.10
2015,01,17,12,08,16.10
2015,01,17,12,09,14.50
2015,01,17,12,10,16.10
2015,01,17,12,11,16.10
2015,01,17,12,12,16.10
2015,01,17,12,13,11.30
2015,01,17,12,14,8.10
2015,01,17,12,15,11.30
2015,01,17,12,16,16.10
2015,01,17,12,17,11.30
2015,01,17,12,18,14.50
2015,01,17,12,19,16.10
2015,01,17,12,20,16.10
2015,01,17,12,21,16.10
2015,01,17,12,22,17.70
2015,01,17,12,23,17.70
2015,01,17,12,24,9.60
2015,01,17,12,25,16.10
2015,01,17,12,26,8.10
2015,01,17,12,27,11.30
2015,01,17,12,28,11.30
2015,01,17,12,29,16.10
2015,01,17,12,30,14.50
2015,01,17,12,31,14.50
2015,01,17,12,32,17.70
2015,01,17,12,33,14.50
2015,01,17,12,34,16.10
2015,01,17,12,35,9.60
2015,01,17,12,36,6.40
2015,01,17,12,37,9.60
2015,01,17,12,38,11.30
2015,01,17,12,39,8.10
2015,01,17,12,40,17.70
2015,01,17,12,41,14.50
2015,01,17,12,42,9.60
2015,01,17,12,43,17.70
2015,01,17,12,44,16.10
2015,01,17,12,45,16.10
2015,01,17,12,46,11.30
2015,01,17,12,47,14.50
2015,01,17,12,48,16.10
2015,01,17,12,49,14.50
2015,01,17,12,50,12.90
2015,01,17,12,51,16.10
2015,01,17,12,52,12.90
2015,01,17,12,53,19.30
2015,01,17,12,54,19.30
2015,01,17,12,55,22.50
2015,01,17,12,56,22.50
2015,01,17,12,57,11.30
2015,01,17,12,58,16.10
2015,01,17,12,59,19.30
2015,01,17,13,00,19.30
2015,01,17,13,01,14.50
2015,01,17,13,02,16.10
2015,01,17,13,03,9.60
2015,01,17,13,04,11.30
2015,01,17,13,05,17.70
2015,01,17,13,06,17.70
2015,01,17,13,07,11.30
2015,01,17,13,08,16.10
2015,01,17,13,09,25.70
2015,01,17,13,10,19.30
2015,01,17,13,11,17.70
2015,01,17,13,12,20.90
2015,01,17,13,13,16.10
2015,01,17,13,14,19.30
2015,01,17,13,15,17.70
2015,01,17,13,16,17.70
2015,01,17,13,17,16.10
2015,01,17,13,18,16.10
2015,01,17,13,19,17.70
2015,01,17,13,20,14.50
2015,01,17,13,21,14.50
2015,01,17,13,22,17.70
2015,01,17,13,23,16.10
2015,01,17,13,24,19.30
2015,01,17,13,25,17.70
2015,01,17,13,26,17.70
2015,01,17,13,27,17.70
2015,01,17,13,28,19.30
2015,01,17,13,29,16.10
2015,01,17,13,30,12.90
2015,01,17,13,31,11.30
2015,01,17,13,32,16.10
2015,01,17,13,33,20.90
2015,01,17,13,34,16.10
2015,01,17,13,35,11.30
2015,01,17,13,36,16.10
2015,01,17,13,37,17.70
2015,01,17,13,38,16.10
2015,01,17,13,39,19.30
2015,01,17,13,40,12.90
2015,01,17,13,41,11.30
2015,01,17,13,42,11.30
2015,01,17,13,43,19.30
2015,01,17,13,44,19.30
2015,01,17,13,45,17.70
2015,01,17,13,46,14.50
2015,01,17,13,47,9.60
2015,01,17,13,48,9.60
2015,01,17,13,49,9.60
2015,01,17,13,50,11.30
2015,01,17,13,51,14.50
2015,01,17,13,52,11.30
2015,01,17,13,53,17.70
2015,01,17,13,54,17.70
2015,01,17,13,55,14.50
2015,01,17,13,56,16.10
2015,01,17,13,57,16.10
2015,01,17,13,58,16.10
2015,01,17,13,59,20.90
2015,01,17,14,00,19.30
2015,01,17,14,01,19.30
2015,01,17,14,02,17.70
2015,01,17,14,03,16.10
2015,01,17,14,04,17.70
2015,01,17,14,05,11.30
2015,01,17,14,06,14.50
2015,01,17,14,07,12.90
2015,01,17,14,08,16.10
2015,01,17,14,09,14.50
2015,01,17,14,10,11.30
2015,01,17,14,11,16.10
2015,01,17,14,12,19.30
2015,01,17,14,13,14.50
2015,01,17,14,14,19.30
2015,01,17,14,15,17.70
2015,01,17,14,16,17.70
2015,01,17,14,17,14.50
2015,01,17,14,18,14.50
2015,01,17,14,19,9.60
2015,01,17,14,20,9.60
2015,01,17,14,21,17.70
2015,01,17,14,22,14.50
2015,01,17,14,23,17.70
2015,01,17,14,24,16.10
2015,01,17,14,25,16.10
2015,01,17,14,26,11.30
2015,01,17,14,27,16.10
2015,01,17,14,28,17.70
2015,01,17,14,29,14.50
2015,01,17,14,30,11.30
2015,01,17,14,31,14.50
2015,01,17,14,32,14.50
2015,01,17,14,33,16.10
2015,01,17,14,34,11.30
2015,01,17,14,35,11.30
2015,01,17,14,36,17.70
2015,01,17,14,37,16.10
2015,01,17,14,38,17.70
2015,01,17,14,39,16.10
2015,01,17,14,40,16.10
2015,01,17,14,41,16.10
2015,01,17,14,42,16.10
2015,01,17,14,43,17.70
2015,01,17,14,44,11.30
2015,01,17,14,45,14.50
2015,01,17,14,46,14.50
2015,01,17,14,47,16.10
2015,01,17,14,48,17.70
2015,01,17,14,49,17.70
2015,01,17,14,50,17.70
2015,01,17,14,51,14.50
2015,01,17,14,52,11.30
2015,01,17,14,53,17.70
2015,01,17,14,54,19.30
2015,01,17,14,55,16.10
2015,01,17,14,56,12.90
2015,01,17,14,57,14.50
2015,01,17,14,58,14.50
2015,01,17,14,59,14.50
2015,01,17,15,00,16.10
2015,01,17,15,01,9.60
2015,01,17,15,02,11.30
2015,01,17,15,03,9.60
2015,01,17,15,04,14.50
2015,01,17,15,05,11.30
2015,01,17,15,06,16.10
2015,01,17,15,07,11.30
2015,01,17,15,08,14.50
2015,01,17,15,09,8.10
2015,01,17,15,10,11.30
2015,01,17,15,11,14.50
2015,01,17,15,12,9.60
2015,01,17,15,13,8.10
2015,01,17,15,14,16.10
2015,01,17,15,15,16.10
2015,01,17,15,16,12.90
2015,01,17,15,17,14.50
2015,01,17,15,18,9.60
2015,01,17,15,19,8.10
2015,01,17,15,20,11.30
2015,01,17,15,21,9.60
2015,01,17,15,22,9.60
2015,01,17,15,23,9.60
2015,01,17,15,24,8.10
2015,01,17,15,25,9.60
2015,01,17,15,26,8.10
2015,01,17,15,27,9.60
2015,01,17,15,28,11.30
2015,01,17,15,29,14.50
2015,01,17,15,30,9.60
2015,01,17,15,31,8.10
2015,01,17,15,32,11.30
2015,01,17,15,33,9.60
2015,01,17,15,34,8.10
2015,01,17,15,35,8.10
2015,01,17,15,36,11.30
2015,01,17,15,37,14.50
2015,01,17,15,38,9.60
2015,01,17,15,39,8.10
2015,01,17,15,40,16.10
2015,01,17,15,41,14.50
2015,01,17,15,42,14.50
2015,01,17,15,43,11.30
2015,01,17,15,44,11.30
2015,01,17,15,45,9.60
2015,01,17,15,46,11.30
2015,01,17,15,47,8.10
2015,01,17,15,48,14.50
2015,01,17,15,49,11.30
2015,01,17,15,50,9.60
2015,01,17,15,51,8.10
2015,01,17,15,52,8.10
2015,01,17,15,53,11.30
2015,01,17,15,54,11.30
2015,01,17,15,55,8.10
2015,01,17,15,56,6.40
2015,01,17,15,57,6.40
2015,01,17,15,58,3.20
2015,01,17,15,59,9.60
2015,01,17,16,00,9.60
2015,01,17,16,01,9.60
2015,01,17,16,02,11.30
2015,01,17,16,03,9.60
2015,01,17,16,04,11.30
2015,01,17,16,05,8.10
2015,01,17,16,06,8.10
2015,01,17,16,07,8.10
2015,01,17,16,08,8.10
2015,01,17,16,09,14.50
2015,01,17,16,10,11.30
2015,01,17,16,11,12.90
2015,01,17,16,12,12.90
2015,01,17,16,13,14.50
2015,01,17,16,14,9.60
2015,01,17,16,15,9.60
2015,01,17,16,16,8.10
2015,01,17,16,17,17.70
2015,01,17,16,18,11.30
2015,01,17,16,19,11.30
2015,01,17,16,20,9.60
2015,01,17,16,21,8.10
2015,01,17,16,22,8.10
2015,01,17,16,23,9.60
2015,01,17,16,24,14.50
2015,01,17,16,25,9.60
2015,01,17,16,26,11.30
2015,01,17,16,27,11.30
2015,01,17,16,28,8.10
2015,01,17,16,29,9.60
2015,01,17,16,30,11.30
2015,01,17,16,31,11.30
2015,01,17,16,32,16.10
2015,01,17,16,33,16.10
2015,01,17,16,34,17.70
2015,01,17,16,35,11.30
2015,01,17,16,36,11.30
2015,01,17,16,37,11.30
2015,01,17,16,38,8.10
2015,01,17,16,39,12.90
2015,01,17,16,40,9.60
2015,01,17,16,41,9.60
2015,01,17,16,42,14.50
2015,01,17,16,43,11.30
2015,01,17,16,44,16.10
2015,01,17,16,45,14.50
2015,01,17,16,46,11.30
2015,01,17,16,47,16.10
2015,01,17,16,48,9.60
2015,01,17,16,49,8.10
2015,01,17,16,50,9.60
2015,01,17,16,51,14.50
2015,01,17,16,52,11.30
2015,01,17,16,53,11.30
2015,01,17,16,54,9.60
2015,01,17,16,55,9.60
2015,01,17,16,56,9.60
2015,01,17,16,57,6.40
2015,01,17,16,58,8.10
2015,01,17,16,59,6.40
2015,01,17,17,00,9.60
2015,01,17,17,01,6.40
2015,01,17,17,02,6.40
2015,01,17,17,03,4.80
2015,01,17,17,04,6.40
2015,01,17,17,05,6.40
2015,01,17,17,06,9.60
2015,01,17,17,07,8.10
2015,01,17,17,08,9.60
2015,01,17,17,09,6.40
2015,01,17,17,10,4.80
2015,01,17,17,11,8.10
2015,01,17,17,12,8.10
2015,01,17,17,13,9.60
2015,01,17,17,14,9.60
2015,01,17,17,15,9.60
2015,01,17,17,16,11.30
2015,01,17,17,17,8.10
2015,01,17,17,18,3.20
2015,01,17,17,19,4.80
2015,01,17,17,20,6.40
2015,01,17,17,21,8.10
2015,01,17,17,22,6.40
2015,01,17,17,23,9.60
2015,01,17,17,24,9.60
2015,01,17,17,25,9.60
2015,01,17,17,26,9.60
2015,01,17,17,27,16.10
2015,01,17,17,28,16.10
2015,01,17,17,29,8.10
2015,01,17,17,30,9.60
2015,01,17,17,31,11.30
2015,01,17,17,32,14.50
2015,01,17,17,33,9.60
2015,01,17,17,34,9.60
2015,01,17,17,35,14.50
2015,01,17,17,36,17.70
2015,01,17,17,37,16.10
2015,01,17,17,38,17.70
2015,01,17,17,39,12.90
2015,01,17,17,40,17.70
2015,01,17,17,41,19.30
2015,01,17,17,42,16.10
2015,01,17,17,43,14.50
2015,01,17,17,44,17.70
2015,01,17,17,45,14.50
2015,01,17,17,46,12.90
2015,01,17,17,47,16.10
2015,01,17,17,48,16.10
2015,01,17,17,49,11.30
2015,01,17,17,50,11.30
2015,01,17,17,51,9.60
2015,01,17,17,52,11.30
2015,01,17,17,53,11.30
2015,01,17,17,54,11.30
2015,01,17,17,55,11.30
2015,01,17,17,56,17.70
2015,01,17,17,57,14.50
2015,01,17,17,58,17.70
2015,01,17,17,59,9.60
2015,01,17,18,00,14.50
2015,01,17,18,01,17.70
2015,01,17,18,02,12.90
2015,01,17,18,03,17.70
2015,01,17,18,04,16.10
2015,01,17,18,05,16.10